Regional Weather Roundup
Issued by NWS

Home | Current Version | Previous Version | Graphics & Text | Print | Product List | Glossary On
Versions: 1 2 3 4 5 6 7 8 9 10 11 12 13 14 15 16 17 18 19 20 21 22 23 24 25 26 27 28 29 30 31 32 33 34 35 36 37 38 39 40 41 42 43 44 45 46 47 48 49 50
000
ASUS43 KLSX 010959
RWRMO

WEATHER SUMMARY FOR MISSOURI
NATIONAL WEATHER SERVICE SPRINGFIELD MO
500 AM CDT MON SEP 01 2014

NOTE: "FAIR" INDICATES FEW OR NO CLOUDS BELOW 12,000 FEET WITH NO
       SIGNIFICANT WEATHER AND/OR OBSTRUCTIONS TO VISIBILITY.
       CURRENT SKY AND/OR WEATHER CONDITIONS ARE NOT AVAILABLE FOR
       CHILLICOTHE AND FARMINGTON.

MOZ001>031-035>038-043-044-053-054-011100-
...NORTHERN AND WESTERN MISSOURI...

CITY           SKY/WX    TMP DP  RH WIND       PRES   REMARKS
KANSAS CTY INT CLOUDY    66  64  93 S17G33    29.77R
KANSAS C DTWN  LGT RAIN  68  64  87 SE20G31   29.73F
ST JOSEPH      CLOUDY    67  64  90 S15       29.75F
CHILLICOTHE      N/A     67  64  90 S16G37    29.73F
KIRKSVILLE     RAIN      67  65  93 SW12G21   29.87R

$$
MOZ066>068-077>081-088>096-101>105-011100-
...SOUTHWEST MISSOURI...

CITY           SKY/WX    TMP DP  RH WIND       PRES   REMARKS
SPRINGFIELD    HVY RAIN  66  62  87 NW35G47   30.00R FOG
JOPLIN         TSTM      63  62  97 NE10      29.97S FOG

$$
MOZ032>034-039>042-045>050-055>058-069>072-011100-
...CENTRAL MISSOURI...

CITY           SKY/WX    TMP DP  RH WIND       PRES   REMARKS
COLUMBIA       HVY RAIN  68  65  90 W15G22    29.93R
JEFFERSON CITY CLOUDY    70  65  84 W9        29.93R
ROLLA          MOCLDY    70  65  84 W5        29.92R
SEDALIA        TSTM      68  65  90 SW8       29.98R FOG
OSAGE BEACH    CLOUDY    68  64  88 NW6       29.95R

$$
MOZ051-052-059>065-011100-
...EAST CENTRAL MISSOURI...

CITY           SKY/WX    TMP DP  RH WIND       PRES   REMARKS
ST LOUIS INTL  NOT AVBL
SPIRIT OF STL  MOCLDY    76  71  85 S9        29.86R
ST CHARLES     PTCLDY    74  71  91 S7        29.85S

$$
MOZ072>076-082>087-097>100-106>115-011100-
...SOUTH CENTRAL AND SOUTHEAST MISSOURI...

CITY           SKY/WX    TMP DP  RH WIND       PRES   REMARKS
CAPE GIRARDEAU CLOUDY    75  72  90 S15       29.95R
FARMINGTON     MOCLDY    73  70  88 S12       29.96R
POPLAR BLUFF   CLOUDY    75  70  84 SW7       29.95R
WEST PLAINS    PTCLDY    72  69  90 S5        29.98R

$$


USA.gov is the U.S. government's official web portal to all federal, state and local government web resources and services.